| time (UTC) | temp F | wind direction | speed MPH | gust MPH | rain 1hr in | rain 24hr in | rain mn in | humidity % | barometer mb |
| 20260505055016 | 46 | 225 | 4.0 | 8.0 | 0.00 | 0.00 | 0.00 | 92 | 1018.2 |
| 20260505054016 | 46 | 225 | 3.0 | 6.0 | 0.00 | 0.00 | 0.00 | 91 | 1018.2 |
| 20260505053016 | 46 | 225 | 5.0 | 9.0 | 0.00 | 0.00 | 0.00 | 91 | 1018.3 |
| 20260505052016 | 46 | 225 | 2.0 | 8.0 | 0.00 | 0.00 | 0.00 | 91 | 1018.2 |
| 20260505051057 | 46 | 0.0 | 3.0 | 0.00 | 0.00 | 0.00 | 91 | 1018.2 | |
| 20260505041016 | 46 | 0.0 | 2.0 | 0.00 | 0.00 | 0.00 | 90 | 1017.9 | |
| 20260505040036 | 46 | 0.0 | 2.0 | 0.00 | 0.00 | 0.00 | 89 | 1017.9 | |
| 20260505035016 | 46 | 0.0 | 1.0 | 0.00 | 0.00 | 0.00 | 89 | 1017.9 | |
| 20260505034016 | 45 | 68 | 1.0 | 2.0 | 0.00 | 0.00 | 0.00 | 89 | 1017.9 |
| 20260505033016 | 45 | 113 | 1.0 | 3.0 | 0.00 | 0.00 | 0.00 | 89 | 1018.0 |
| 20260505032038 | 45 | 158 | 1.0 | 3.0 | 0.00 | 0.00 | 0.00 | 90 | 1018.1 |
| 20260505031016 | 45 | 0 | 1.0 | 4.0 | 0.00 | 0.00 | 0.00 | 90 | 1018.0 |
| 20260505030036 | 45 | 0.0 | 0.0 | 0.00 | 0.00 | 0.00 | 89 | 1018.0 | |
| 20260505025016 | 46 | 0.0 | 2.0 | 0.00 | 0.00 | 0.00 | 88 | 1018.0 | |
| 20260505024016 | 47 | 0.0 | 2.0 | 0.00 | 0.00 | 0.00 | 86 | 1018.1 | |
| 20260505023016 | 47 | 0.0 | 3.0 | 0.00 | 0.00 | 0.00 | 86 | 1018.1 | |
| 20260505022116 | 47 | 225 | 1.0 | 4.0 | 0.00 | 0.00 | 0.00 | 85 | 1018.1 |
| 20260505021016 | 47 | 0.0 | 1.0 | 0.00 | 0.00 | 0.00 | 86 | 1018.2 | |
| 20260505020016 | 47 | 0.0 | 1.0 | 0.00 | 0.00 | 0.00 | 86 | 1018.1 | |
| 20260505015016 | 47 | 0.0 | 3.0 | 0.00 | 0.00 | 0.00 | 88 | 1018.2 | |
| 20260505014016 | 47 | 0.0 | 2.0 | 0.00 | 0.00 | 0.00 | 89 | 1018.1 | |
| 20260505013016 | 47 | 203 | 1.0 | 3.0 | 0.00 | 0.00 | 0.00 | 90 | 1018.2 |
| 20260505012017 | 47 | 225 | 2.0 | 5.0 | 0.00 | 0.00 | 0.00 | 89 | 1018.2 |
| 20260505011015 | 48 | 225 | 3.0 | 6.0 | 0.00 | 0.00 | 0.00 | 89 | 1018.1 |
| 20260505010017 | 48 | 248 | 3.0 | 6.0 | 0.00 | 0.00 | 0.00 | 90 | 1018.2 |
| 20260505005016 | 48 | 270 | 1.0 | 5.0 | 0.00 | 0.00 | 0.00 | 91 | 1018.2 |
| 20260505004036 | 48 | 0.0 | 2.0 | 0.00 | 0.00 | 0.00 | 92 | 1018.2 | |
| 20260505003017 | 48 | 248 | 2.0 | 3.0 | 0.00 | 0.00 | 0.00 | 93 | 1018.2 |
| 20260505002037 | 49 | 225 | 1.0 | 3.0 | 0.00 | 0.00 | 0.00 | 93 | 1018.2 |
| 20260505001036 | 50 | 225 | 2.0 | 5.0 | 0.00 | 0.00 | 0.00 | 91 | 1018.3 |
| 20260505000016 | 50 | 315 | 2.0 | 5.0 | 0.00 | 0.00 | 0.00 | 91 | 1018.2 |
| 20260504235015 | 50 | 0.0 | 2.0 | 0.00 | 0.00 | 0.00 | 93 | 1018.4 | |
| 20260504234015 | 50 | 0.0 | 1.0 | 0.00 | 0.00 | 0.00 | 93 | 1018.3 | |
| 20260504233016 | 51 | 0.0 | 2.0 | 0.00 | 0.00 | 0.00 | 92 | 1018.3 | |
| 20260504232015 | 51 | 0.0 | 2.0 | 0.00 | 0.00 | 0.00 | 92 | 1018.2 | |
| 20260504231015 | 52 | 225 | 2.0 | 7.0 | 0.00 | 0.00 | 0.00 | 92 | 1018.2 |
| 20260504230015 | 52 | 225 | 5.0 | 9.0 | 0.00 | 0.00 | 0.00 | 92 | 1018.2 |
| 20260504225017 | 52 | 225 | 4.0 | 9.0 | 0.00 | 0.00 | 0.00 | 92 | 1018.1 |
| 20260504224021 | 52 | 225 | 3.0 | 7.0 | 0.00 | 0.00 | 0.00 | 92 | 1018.2 |
| 20260504223016 | 52 | 203 | 3.0 | 6.0 | 0.00 | 0.00 | 0.00 | 92 | 1018.3 |
| 20260504222016 | 52 | 203 | 3.0 | 6.0 | 0.00 | 0.00 | 0.00 | 92 | 1018.4 |
| 20260504221016 | 53 | 203 | 3.0 | 7.0 | 0.00 | 0.00 | 0.00 | 91 | 1018.4 |
| 20260504220016 | 53 | 203 | 3.0 | 6.0 | 0.00 | 0.00 | 0.00 | 91 | 1018.3 |
| 20260504215036 | 53 | 203 | 2.0 | 6.0 | 0.00 | 0.00 | 0.00 | 91 | 1018.3 |
| 20260504214016 | 53 | 203 | 2.0 | 6.0 | 0.00 | 0.00 | 0.00 | 91 | 1018.4 |
| 20260504213016 | 53 | 203 | 2.0 | 7.0 | 0.00 | 0.00 | 0.00 | 90 | 1018.4 |
| 20260504212016 | 53 | 203 | 1.0 | 4.0 | 0.00 | 0.00 | 0.00 | 90 | 1018.4 |
| 20260504211017 | 53 | 0.0 | 0.0 | 0.00 | 0.00 | 0.00 | 91 | 1018.3 | |
| 20260504210016 | 54 | 0.0 | 0.0 | 0.00 | 0.00 | 0.00 | 91 | 1018.4 | |
| 20260504205036 | 54 | 0.0 | 1.0 | 0.00 | 0.00 | 0.00 | 90 | 1018.3 | |
| 20260504204037 | 54 | 0.0 | 2.0 | 0.00 | 0.00 | 0.00 | 90 | 1018.2 | |
| 20260504203016 | 54 | 225 | 1.0 | 3.0 | 0.00 | 0.00 | 0.00 | 89 | 1018.2 |
| 20260504202039 | 54 | 0.0 | 1.0 | 0.00 | 0.00 | 0.00 | 89 | 1018.0 | |
| 20260504201015 | 55 | 0.0 | 1.0 | 0.00 | 0.00 | 0.00 | 88 | 1018.0 | |
| 20260504200016 | 55 | 225 | 1.0 | 4.0 | 0.00 | 0.00 | 0.00 | 87 | 1018.0 |
| 20260504195016 | 55 | 225 | 3.0 | 5.0 | 0.00 | 0.00 | 0.00 | 88 | 1017.9 |
| 20260504194016 | 55 | 225 | 2.0 | 6.0 | 0.00 | 0.00 | 0.00 | 87 | 1017.9 |
| 20260504193016 | 55 | 225 | 2.0 | 5.0 | 0.00 | 0.00 | 0.00 | 88 | 1017.8 |
| 20260504192016 | 55 | 203 | 1.0 | 4.0 | 0.00 | 0.00 | 0.00 | 89 | 1017.7 |
| 20260504191015 | 55 | 0.0 | 2.0 | 0.00 | 0.00 | 0.00 | 90 | 1017.7 | |
| 20260504190017 | 56 | 0.0 | 0.0 | 0.00 | 0.00 | 0.00 | 90 | 1017.6 | |
| 20260504185016 | 55 | 0.0 | 0.0 | 0.00 | 0.00 | 0.00 | 91 | 1017.6 | |
| 20260504184040 | 55 | 0.0 | 0.0 | 0.00 | 0.00 | 0.00 | 92 | 1017.6 | |
| 20260504183016 | 54 | 0.0 | 0.0 | 0.00 | 0.00 | 0.00 | 91 | 1017.7 | |
| 20260504182017 | 54 | 0.0 | 1.0 | 0.00 | 0.00 | 0.00 | 91 | 1017.6 | |
| 20260504181037 | 54 | 0.0 | 1.0 | 0.00 | 0.00 | 0.00 | 91 | 1017.6 | |
| 20260504180016 | 54 | 0.0 | 2.0 | 0.00 | 0.00 | 0.00 | 91 | 1017.5 | |
| 20260504175015 | 54 | 338 | 1.0 | 2.0 | 0.00 | 0.00 | 0.00 | 91 | 1017.5 |
| 20260504174017 | 54 | 338 | 1.0 | 5.0 | 0.00 | 0.00 | 0.00 | 91 | 1017.5 |
| 20260504173018 | 54 | 315 | 3.0 | 6.0 | 0.00 | 0.00 | 0.00 | 91 | 1017.6 |
| 20260504172117 | 55 | 315 | 3.0 | 7.0 | 0.00 | 0.01 | 0.00 | 90 | 1017.6 |
| 20260504171017 | 55 | 293 | 3.0 | 6.0 | 0.00 | 0.01 | 0.00 | 89 | 1017.5 |
| 20260504151017 | 57 | 315 | 1.0 | 5.0 | 0.00 | 0.01 | 0.00 | 84 | 1017.3 |
| 20260504141021 | 58 | 315 | 3.0 | 6.0 | 0.00 | 0.01 | 0.00 | 81 | 1017.4 |
| 20260504081018 | 55 | 293 | 6.0 | 11.0 | 0.00 | 0.01 | 0.00 | 86 | 1016.7 |